Location: D�nning
(49.2479°N, 12.8491°E)
Time: 08:55:18
(UTC+00:00)

Cosmos 2151 Rocket - Pass Details

Date: 18 September 2020
Orbit: 618 x 642 km, 82.5° (Epoch: 24 October)

Event Time Altitude Azimuth Distance (km) Brightness Sun altitude
Rises 18:44:27 0° 178° (S) 2,901 6.8 -15.2°
Reaches altitude 10° 18:46:41 10° 174° (S) 2,003 5.9 -15.5°
Maximum altitude 18:51:03 60° 95° (E) 729 3.6 -16.2°
Drops below altitude 10° 18:55:29 10° 17° (NNE) 2,034 6.3 -16.8°
Sets 18:57:46 0° 13° (NNE) 2,951 7.2 -17.2°
